Location: Sosnowiec
(50.3000°N, 19.1667°E)
Time: 20:38:20
(UTC+01:00)

ISS - Visible Passes

Search period start: 18 January 2018 00:00
Search period end: 28 January 2018 00:00
Orbit: 402 x 407 km, 51.6° (Epoch: 18 January)

Date Brightness Start Highest point End Pass type
(mag) Time Alt. Az. Time Alt. Az. Time Alt. Az.
25 Jan -1.2 18:13:25 10° SSE 18:13:31 10° SSE 18:13:31 10° SSE visible
26 Jan -1.4 18:55:16 10° SW 18:56:18 17° SSW 18:56:18 17° SSW visible
27 Jan -2.3 18:03:28 10° SSW 18:06:03 22° SE 18:06:18 21° SE visible
27 Jan -0.4 19:38:55 10° WSW 19:38:58 10° WSW 19:38:58 10° WSW visible
